Hourly Data Report for October 31, 2015

All times are specified in Local Standard Time (LST). Add 1 hour to adjust for Daylight Saving Time where and when it is observed.

ARVIAT A
NUNAVUT

61°05'38.000" N
94°04'18.000" W
10.40 m
2300427
71174
YEK

Download Data

Hourly Data (October 2015)
Hourly Data Report for October 31, 2015
Temp Definition
°C
Dew Point Temp Definition
°C
Rel Hum Definition
%
Wind Dir Definition
10's deg

Wind Spd Definition
km/h
Visibility Definition
km
Stn Press Definition
kPa
Hmdx Definition


Wind Chill Definition


Weather Definition


TIME
00:00 Legend Double Dagger -2.4 -3.8 90 12 35 11.3 100.49   -10 Snow
01:00 Legend Double Dagger -2.1 -3.7 89 12 35 14.5 100.49   -10 Snow
02:00 Legend Double Dagger -2.0 -4.2 85 13 32 16.1 100.48   -9 Snow
03:00 Legend Double Dagger -1.9 -3.9 87 13 32 16.1 100.50   -9 Snow
04:00 Legend Double Dagger -1.8 -4.1 84 13 34 16.1 100.52   -9 Snow
05:00 Legend Double Dagger -1.8 -3.5 88 12 32 16.1 100.53   -9 Snow
06:00 Legend Double Dagger -1.8 -2.9 92 12 30 16.1 100.55   -9 Snow
07:00 Legend Double Dagger -1.8 -2.5 95 13 26 12.9 100.57   -8 Snow
08:00 Legend Double Dagger -1.6 -2.4 95 12 32 16.1 100.59   -9 Snow
09:00 Legend Double Dagger -1.6 -2.2 96 12 34 8.1 100.61   -9 Snow
10:00 Legend Double Dagger -1.5 -2.5 93 12 37 12.9 100.62   -9 Snow
11:00 Legend Double Dagger -1.6 -2.7 92 12 37 12.9 100.64   -9 Snow
12:00 Legend Double Dagger -1.5 -3.3 88 13 34 16.1 100.68   -9 Snow
13:00 Legend Double Dagger -1.3 -3.3 86 13 28 16.1 100.70   -8 LegendNANA
14:00 Legend Double Dagger -1.4 -3.1 88 12 26 16.1 100.73   -8 Snow
15:00 Legend Double Dagger -1.2 -3.3 86 13 24 16.1 100.76   -7 LegendNANA
16:00 Legend Double Dagger -1.6 -3.3 88 12 28 16.1 100.78   -8 Snow
17:00 Legend Double Dagger -1.5 -3.7 85 13 24 16.1 100.81   -8 LegendNANA
18:00 Legend Double Dagger -1.4 -4.4 80 12 24 16.1 100.83   -8 LegendNANA
19:00 Legend Double Dagger -1.4 -3.9 83 12 26 16.1 100.84   -8 LegendNANA
20:00 Legend Double Dagger -1.2 -3.9 82 12 28 16.1 100.83   -8 LegendNANA
21:00 Legend Double Dagger -1.5 -3.2 88 12 34 16.1 100.85   -9 LegendNANA
22:00 Legend Double Dagger -1.5 -2.9 90 13 34 16.1 100.86   -9 LegendNANA
23:00 Legend Double Dagger -1.6 -3.3 88 12 32 16.1 100.88   -9 LegendNANA

Notes on Data Quality.

Legend

  • E = Estimated
  • M = Missing
  • NA = Not Available
  • ‡ = Partner data that is not subject to review by the National Climate Archives
Date modified: